DW8749 Weather Reports


time (UTC)temp
F
wind
direction
speed
knots
gust
knots
rain 1hr
in
rain 24hr
in
rain mn
in
humidity
%
barometer
mb
20260505025508 72 36 5.2 9.6 0.00 0.00 0.00 41 1002.7
20260505025009 72 48 4.3 8.7 0.00 0.00 0.00 41 1002.4
20260505024510 72 31 4.3 10.4 0.00 0.00 0.00 41 1002.4
20260505024003 72 31 5.2 10.4 0.00 0.00 0.00 41 1002.4
20260505023507 72 18 3.5 8.7 0.00 0.00 0.00 41 1002.2
20260505023021 72 56 2.6 7.8 0.00 0.00 0.00 41 1002.2
20260505022507 72 98 1.7 11.3 0.00 0.00 0.00 41 1002.2
20260505022007 72 53 5.2 11.3 0.00 0.00 0.00 42 1002.1
20260505021527 72 75 3.5 7.8 0.00 0.00 0.00 42 1002.0
20260505021009 72 63 0.9 5.2 0.00 0.00 0.00 43 1002.1
20260505020507 73 103 0.0 4.3 0.00 0.00 0.00 45 1002.0
20260505020033 73 152 1.7 7.0 0.00 0.00 0.00 41 1002.0
20260505015511 74 86 0.9 7.0 0.00 0.00 0.00 40 1001.9
20260505015009 74 82 1.7 5.2 0.00 0.00 0.00 39 1001.7
20260505014514 74 69 0.9 7.8 0.00 0.00 0.00 40 1001.8
20260505014007 74 111 0.9 10.4 0.00 0.00 0.00 40 1001.8
20260505013507 74 144 4.3 13.9 0.00 0.00 0.00 42 1001.9
20260505013028 74 141 7.8 20.0 0.00 0.00 0.00 40 1001.7
20260505012508 76 159 11.3 19.1 0.00 0.00 0.00 41 1001.8
20260505012007 80 180 7.0 11.3 0.00 0.00 0.00 33 1001.7
20260505011534 80 205 1.7 4.3 0.00 0.00 0.00 27 1001.5
20260505011009 80 63 1.7 4.3 0.00 0.00 0.00 26 1001.3
20260505010511 81 337 2.6 4.3 0.00 0.00 0.00 26 1001.2
20260505010045 81 288 1.7 7.0 0.00 0.00 0.00 25 1001.2
20260505005509 81 305 0.9 15.6 0.00 0.00 0.00 24 1001.2
20260505005007 81 321 4.3 17.4 0.00 0.00 0.00 24 1001.1
20260505004517 81 324 7.8 20.0 0.00 0.00 0.00 25 1001.0
20260505004009 81 336 9.6 20.0 0.00 0.00 0.00 25 1000.9
20260505003507 81 322 7.8 15.6 0.00 0.00 0.00 25 1001.1
20260505003022 81 138 0.0 4.3 0.00 0.00 0.00 24 1001.0
20260505002511 81 100 1.7 5.2 0.00 0.00 0.00 24 1000.9
20260505002012 82 150 1.7 5.2 0.00 0.00 0.00 24 1000.9
20260505001526 82 139 2.6 7.8 0.00 0.00 0.00 24 1000.8
20260505001009 82 134 0.9 7.8 0.00 0.00 0.00 24 1000.8
20260505000509 82 99 1.7 7.0 0.00 0.00 0.00 24 1000.6
20260505000023 82 148 1.7 7.0 0.00 0.00 0.00 25 1000.6
20260504235507 82 109 1.7 7.8 0.00 0.00 0.00 25 1000.8
20260504235007 83 133 4.3 10.4 0.00 0.00 0.00 24 1000.7
20260504234520 83 134 2.6 10.4 0.00 0.00 0.00 25 1000.8
20260504234007 83 134 3.5 9.6 0.00 0.00 0.00 24 1000.8
20260504233503 83 94 5.2 9.6 0.00 0.00 0.00 24 1000.8
20260504233003 83 138 5.2 9.6 0.00 0.00 0.00 24 1000.8
20260504232503 83 141 4.3 8.7 0.00 0.00 0.00 25 1000.8
20260504232008 83 166 4.3 10.4 0.00 0.00 0.00 24 1000.8
20260504231507 83 110 6.1 10.4 0.00 0.00 0.00 24 1000.8
20260504231004 84 127 7.0 9.6 0.00 0.00 0.00 24 1000.8
20260504230508 84 146 3.5 9.6 0.00 0.00 0.00 24 1000.8
20260504230020 84 138 6.1 9.6 0.00 0.00 0.00 24 1000.9
20260504225505 84 106 2.6 9.6 0.00 0.00 0.00 24 1000.8
20260504225006 84 130 2.6 8.7 0.00 0.00 0.00 25 1000.8
20260504224524 85 137 5.2 8.7 0.00 0.00 0.00 24 1000.8
20260504224003 85 136 4.3 9.6 0.00 0.00 0.00 24 1000.9
20260504223503 85 135 6.1 9.6 0.00 0.00 0.00 24 1001.0
20260504223011 85 132 1.7 7.8 0.00 0.00 0.00 21 1000.9
20260504222504 86 153 2.6 8.7 0.00 0.00 0.00 20 1000.8
20260504222003 86 40 3.5 8.7 0.00 0.00 0.00 19 1000.7
20260504221520 86 43 0.0 3.5 0.00 0.00 0.00 20 1000.7
20260504221006 86 67 1.7 5.2 0.00 0.00 0.00 19 1000.8
20260504220509 86 55 1.7 8.7 0.00 0.00 0.00 20 1000.8
20260504220018 86 57 2.6 8.7 0.00 0.00 0.00 19 1000.7
20260504215512 86 103 1.7 8.7 0.00 0.00 0.00 19 1000.8
20260504215011 86 90 3.5 8.7 0.00 0.00 0.00 20 1000.8
20260504214505 86 76 2.6 13.0 0.00 0.00 0.00 20 1000.9
20260504214002 86 143 3.5 13.0 0.00 0.00 0.00 20 1000.9
20260504213503 86 80 2.6 7.8 0.00 0.00 0.00 21 1000.9
20260504213006 85 113 2.6 7.8 0.00 0.00 0.00 22 1001.1
20260504212504 85 100 2.6 7.8 0.00 0.00 0.00 20 1001.2
20260504212009 85 109 1.7 7.8 0.00 0.00 0.00 20 1001.3
20260504211513 85 60 2.6 7.0 0.00 0.00 0.00 21 1001.3
20260504211007 85 77 0.9 7.0 0.00 0.00 0.00 21 1001.4
20260504210509 85 134 3.5 8.7 0.00 0.00 0.00 19 1001.4
20260504210023 86 134 3.5 12.2 0.00 0.00 0.00 19 1001.5
20260504205507 86 61 3.5 12.2 0.00 0.00 0.00 19 1001.6
20260504205008 87 118 2.6 10.4 0.00 0.00 0.00 21 1001.6
20260504204503 87 126 5.2 10.4 0.00 0.00 0.00 20 1001.7
20260504204005 87 134 2.6 10.4 0.00 0.00 0.00 19 1001.7
20260504203506 87 118 2.6 10.4 0.00 0.00 0.00 20 1001.7
20260504203012 87 84 3.5 10.4 0.00 0.00 0.00 21 1001.9
20260504202506 86 37 3.5 13.0 0.00 0.00 0.00 19 1002.0
20260504202007 86 92 0.9 13.0 0.00 0.00 0.00 20 1002.2
20260504201516 87 146 7.8 11.3 0.00 0.00 0.00 19 1002.3
20260504201008 86 76 0.9 7.0 0.00 0.00 0.00 20 1002.2
20260504200511 86 37 2.6 7.8 0.00 0.00 0.00 18 1002.4
20260504200023 86 105 2.6 8.7 0.00 0.00 0.00 22 1002.4
20260504195507 86 128 4.3 8.7 0.00 0.00 0.00 20 1002.5
20260504195004 86 49 1.7 9.6 0.00 0.00 0.00 22 1002.4
20260504194507 86 121 3.5 7.8 0.00 0.00 0.00 20 1002.5
20260504194006 86 66 3.5 7.8 0.00 0.00 0.00 22 1002.7
20260504193506 86 57 2.6 8.7 0.00 0.00 0.00 21 1002.7
20260504193014 86 100 3.5 9.6 0.00 0.00 0.00 20 1002.9
20260504192506 86 80 3.5 9.6 0.00 0.00 0.00 22 1002.9
20260504192007 86 65 4.3 9.6 0.00 0.00 0.00 20 1003.1
20260504191530 86 86 1.7 9.6 0.00 0.00 0.00 23 1003.1
20260504191008 85 36 0.9 5.2 0.00 0.00 0.00 22 1003.1
20260504190507 85 89 1.7 9.6 0.00 0.00 0.00 24 1003.1
20260504190026 85 133 1.7 13.0 0.00 0.00 0.00 21 1003.3
20260504185503 85 76 3.5 13.0 0.00 0.00 0.00 21 1003.4
20260504185004 85 347 5.2 9.6 0.00 0.00 0.00 20 1003.3
20260504184514 85 30 5.2 9.6 0.00 0.00 0.00 22 1003.4
20260504184004 85 53 4.3 10.4 0.00 0.00 0.00 22 1003.4
20260504183507 85 51 5.2 10.4 0.00 0.00 0.00 21 1003.4
20260504183016 85 73 3.5 10.4 0.00 0.00 0.00 23 1003.4
20260504182508 85 65 4.3 10.4 0.00 0.00 0.00 22 1003.5
20260504182011 85 67 5.2 13.9 0.00 0.00 0.00 22 1003.5
20260504181524 85 58 7.0 14.8 0.00 0.00 0.00 21 1003.5
20260504181008 85 54 6.1 14.8 0.00 0.00 0.00 22 1003.5
20260504180510 85 47 5.2 13.0 0.00 0.00 0.00 23 1003.6
20260504180028 84 43 6.1 13.9 0.00 0.00 0.00 24 1003.7
20260504175504 84 50 7.8 13.9 0.00 0.00 0.00 24 1003.9
20260504175007 84 43 6.1 10.4 0.00 0.00 0.00 24 1003.9
20260504174514 84 65 4.3 12.2 0.00 0.00 0.00 25 1003.9
20260504174004 84 43 6.1 12.2 0.00 0.00 0.00 23 1004.0
20260504173507 84 46 6.1 11.3 0.00 0.00 0.00 25 1004.0
20260504173019 83 57 3.5 11.3 0.00 0.00 0.00 28 1004.1
20260504172508 83 67 5.2 7.8 0.00 0.00 0.00 27 1004.1
20260504172010 82 76 2.6 7.8 0.00 0.00 0.00 32 1004.1
20260504171531 82 35 4.3 8.7 0.00 0.00 0.00 29 1004.2
20260504171009 82 28 4.3 8.7 0.00 0.00 0.00 28 1004.2
20260504170517 82 69 4.3 7.8 0.00 0.00 0.00 30 1004.3
20260504151009 74 5 2.6 7.8 0.00 0.00 0.00 33 1003.8
20260504150508 73 287 6.1 8.7 0.00 0.00 0.00 34 1004.0
20260504141008 64 246 2.6 6.1 0.00 0.00 0.00 43 1003.8
20260504140502 63 279 0.9 6.1 0.00 0.00 0.00 43 1003.8
20260504130511 58 255 2.6 7.0 0.00 0.00 0.00 52 1003.7
20260504110506 58 284 2.6 5.2 0.00 0.00 0.00 52 1003.4
20260504100505 61 182 3.5 10.4 0.00 0.00 0.00 47 1003.4
20260504082007 64 215 5.2 10.4 0.00 0.00 0.00 43 1004.0
20260504081517 64 210 3.5 8.7 0.00 0.00 0.00 43 1004.1
20260504081009 64 271 2.6 8.7 0.00 0.00 0.00 42 1004.1
20260504080507 64 195 2.6 8.7 0.00 0.00 0.00 42 1004.2
20260504050512 69 183 3.5 7.8 0.00 0.00 0.00 33 1005.5
20260504050022 69 173 2.6 6.1 0.00 0.00 0.00 33 1005.6
20260504045506 69 219 3.5 8.7 0.00 0.00 0.00 33 1005.6
20260504045009 69 195 3.5 8.7 0.00 0.00 0.00 33 1005.6
20260504044520 69 175 2.6 7.0 0.00 0.00 0.00 32 1005.6
20260504044005 70 150 3.5 7.0 0.00 0.00 0.00 32 1005.7
20260504043503 70 184 3.5 7.0 0.00 0.00 0.00 32 1005.6
20260504043010 70 173 2.6 7.0 0.00 0.00 0.00 31 1005.8
20260504042508 70 161 2.6 8.7 0.00 0.00 0.00 32 1005.9
20260504042007 70 161 4.3 10.4 0.00 0.00 0.00 31 1005.9
20260504041518 71 183 3.5 10.4 0.00 0.00 0.00 31 1005.9
20260504041006 71 164 2.6 7.0 0.00 0.00 0.00 30 1005.9
20260504040506 71 182 3.5 7.0 0.00 0.00 0.00 30 1006.0
20260504040038 72 145 2.6 7.0 0.00 0.00 0.00 29 1006.1
20260504035512 72 187 2.6 12.2 0.00 0.00 0.00 29 1006.0
20260504035010 72 205 4.3 12.2 0.00 0.00 0.00 28 1006.1
20260504034508 72 157 4.3 8.7 0.00 0.00 0.00 28 1006.2
20260504034002 73 206 3.5 8.7 0.00 0.00 0.00 27 1006.4
20260504033504 73 192 2.6 11.3 0.00 0.00 0.00 27 1006.3
20260504033013 73 173 3.5 11.3 0.00 0.00 0.00 27 1006.2
20260504032505 74 150 4.3 7.8 0.00 0.00 0.00 26 1006.2
20260504032008 74 156 2.6 7.8 0.00 0.00 0.00 26 1006.2
20260504031520 74 197 4.3 7.8 0.00 0.00 0.00 26 1006.2
20260504031008 73 192 2.6 6.1 0.00 0.00 0.00 26 1006.1
20260504030508 73 157 2.6 5.2 0.00 0.00 0.00 26 1006.2
20260504030025 72 142 1.7 4.3 0.00 0.00 0.00 28 1006.2